Date String (YYYY-MM-DD hh:mm:ss) UTC,Instrument flags,Ambient pressure (hPa),Sample flow (lpm),Bypass flow (lpm),Sample temperature (°C),Ambient temperature (°C),ASC tube jacket temperature (°C),LED temperature (°C),Box temperature (°C),Sample RH (%),Span deviation,Mass concentration (μg/m³),Mass concentration (μg/m³),Mass concentration (μg/m³)
DateTimeUTC,F1_M11,P_M11,Q1_M11,Q2_M11,T1_M11,T2_M11,T3_M11,T4_M11,T5_M11,U1_M11,ZSPAN_M11,X0_M11,X2_M11,X1_M11
2022-05-01 17:00:00,,0823.4,5.00,0.00,26.9,25.9,00.0,35.7,28.7,12.5,0000.0,0015.08,0006.00,0005.04
2022-05-01 17:01:00,,0823.4,4.99,0.00,26.9,25.9,00.0,35.7,28.7,12.4,0000.0,0015.23,0006.03,0005.05
2022-05-01 17:02:00,,0823.3,4.99,0.00,26.9,25.9,00.0,35.7,28.7,12.3,0000.0,0015.32,0006.10,0005.07
2022-05-01 17:03:00,,0823.3,5.01,0.00,26.9,25.9,00.0,35.7,28.7,12.2,0000.0,0015.53,0006.13,0005.09
2022-05-01 17:04:00,,0823.4,4.99,0.00,26.9,25.9,00.0,35.7,28.7,12.1,0000.0,0014.48,0006.10,0005.07
2022-05-01 17:05:00,,0823.4,5.00,0.00,26.9,26.0,00.0,35.7,28.7,12.0,0000.0,0013.39,0006.05,0005.05
2022-05-01 17:06:00,,0823.3,5.02,0.00,26.9,26.0,00.0,35.7,28.7,12.0,0000.0,0013.51,0006.05,0005.05
2022-05-01 17:07:00,,0823.3,5.00,0.00,26.9,26.0,00.0,35.8,28.7,12.1,0000.0,0014.11,0006.11,0005.08
2022-05-01 17:08:00,,0823.3,4.99,0.00,26.9,26.0,00.0,35.8,28.8,12.1,0000.0,0014.49,0006.17,0005.10
2022-05-01 17:09:00,,0823.4,5.01,0.00,26.9,26.0,00.0,35.8,28.8,12.1,0000.0,0014.52,0006.25,0005.14
2022-05-01 17:10:00,,0823.3,5.00,0.00,26.9,26.0,00.0,35.8,28.8,12.0,0000.2,0015.34,0006.30,0005.17
2022-05-01 17:11:00,,0823.3,4.99,0.00,27.0,26.0,00.0,35.8,28.8,12.0,0000.4,0015.34,0006.35,0005.20
2022-05-01 17:12:00,,0823.3,5.01,0.00,27.0,26.0,00.0,35.8,28.8,11.9,-000.3,0015.14,0006.40,0005.20
2022-05-01 17:13:00,,0823.3,5.00,0.00,27.0,26.0,00.0,35.8,28.8,11.9,0000.0,0015.09,0006.35,0005.18
2022-05-01 17:14:00,,0823.3,5.00,0.00,27.0,26.0,00.0,35.8,28.8,11.9,-000.2,0013.96,0006.30,0005.16
2022-05-01 17:15:00,,0823.4,5.01,0.00,27.0,26.1,00.0,35.8,28.8,11.9,-000.1,0013.70,0006.32,0005.17
2022-05-01 17:16:00,,0823.3,4.99,0.00,27.0,26.1,00.0,35.8,28.8,11.8,0000.0,0013.69,0006.38,0005.20
2022-05-01 17:17:00,,0823.4,4.99,0.00,27.0,26.1,00.0,35.9,28.8,11.7,0000.0,0014.41,0006.44,0005.20
2022-05-01 17:18:00,,0823.4,5.01,0.00,27.0,26.1,00.0,35.9,28.9,11.7,0000.0,0014.58,0006.46,0005.21
2022-05-01 17:19:00,,0823.4,5.01,0.00,27.0,26.1,00.0,35.9,28.9,11.6,0000.0,0014.10,0006.42,0005.18
2022-05-01 17:20:00,,0823.4,4.99,0.00,27.0,26.2,00.0,35.9,28.8,11.4,0000.0,0013.64,0006.32,0005.13
2022-05-01 17:21:00,,0823.4,4.99,0.00,27.1,26.2,00.0,35.9,28.9,11.3,0000.0,0013.09,0006.31,0005.12
2022-05-01 17:22:00,,0823.3,5.00,0.00,27.1,26.2,00.0,35.9,28.9,11.5,0000.0,0013.78,0006.33,0005.13
2022-05-01 17:23:00,,0823.3,5.01,0.00,27.1,26.2,00.0,35.9,28.9,11.5,0000.4,0014.13,0006.41,0005.22
2022-05-01 17:24:00,,0823.3,4.98,0.00,27.1,26.2,00.0,35.9,28.9,11.5,0002.3,0014.28,0006.69,0005.45
2022-05-01 17:25:00,,0823.3,4.99,0.00,27.1,26.2,00.0,35.9,28.9,11.5,0003.8,0014.83,0007.07,0005.81
2022-05-01 17:26:00,,0823.4,5.01,0.00,27.1,26.2,00.0,35.9,28.9,11.7,0003.8,0015.94,0007.36,0006.12
2022-05-01 17:27:00,,0823.3,4.99,0.00,27.1,26.2,00.0,36.0,28.9,11.6,0004.1,0016.74,0007.58,0006.35
2022-05-01 17:28:00,,0823.4,4.99,0.00,27.1,26.2,00.0,36.0,29.0,11.5,0004.2,0016.32,0007.68,0006.49
2022-05-01 17:29:00,,0823.3,5.02,0.00,27.2,26.2,00.0,36.0,29.0,11.6,0004.0,0016.12,0007.71,0006.56
2022-05-01 17:30:00,,0823.4,5.00,0.00,27.2,26.2,00.0,36.0,29.0,11.7,0003.8,0016.17,0007.77,0006.64
2022-05-01 17:31:00,,0823.4,4.99,0.00,27.2,26.3,00.0,36.0,29.0,11.8,0003.7,0016.77,0007.89,0006.73
2022-05-01 17:32:00,,0823.3,5.00,0.00,27.2,26.3,00.0,36.0,29.0,11.6,0003.3,0017.21,0008.04,0006.82
2022-05-01 17:33:00,,0823.3,5.02,0.00,27.2,26.3,00.0,36.0,29.0,11.6,0003.4,0017.32,0008.15,0006.91
2022-05-01 17:34:00,,0823.3,5.00,0.00,27.2,26.3,00.0,36.0,29.0,11.5,0003.6,0017.56,0008.22,0006.95
2022-05-01 17:35:00,,0823.4,4.99,0.00,27.2,26.3,00.0,36.0,29.0,11.4,0003.7,0017.75,0008.05,0006.83
2022-05-01 17:36:00,,0823.4,5.01,0.00,27.2,26.3,00.0,36.1,29.0,11.3,0002.6,0017.63,0007.82,0006.59
2022-05-01 17:37:00,,0823.4,4.99,0.00,27.2,26.3,00.0,36.1,29.0,11.1,0002.3,0016.78,0007.66,0006.40
2022-05-01 17:38:00,,0823.3,4.99,0.00,27.2,26.4,00.0,36.1,29.1,11.0,0001.6,0016.19,0007.55,0006.26
2022-05-01 17:39:00,,0823.3,5.01,0.00,27.3,26.4,00.0,36.1,29.1,11.2,0001.7,0016.32,0007.51,0006.22
2022-05-01 17:40:00,,0823.3,5.00,0.00,27.3,26.4,00.0,36.1,29.1,11.3,0000.7,0015.78,0007.51,0006.20
2022-05-01 17:41:00,,0823.3,4.99,0.00,27.3,26.4,00.0,36.1,29.1,11.3,0000.0,0015.50,0007.50,0006.16
2022-05-01 17:42:00,,0823.2,5.01,0.00,27.3,26.4,00.0,36.1,29.2,11.4,0000.0,0015.53,0007.44,0006.12
2022-05-01 17:43:00,,0823.3,4.99,0.00,27.3,26.4,00.0,36.1,29.2,11.3,0000.0,0016.03,0007.34,0006.05
2022-05-01 17:44:00,,0823.3,5.01,0.00,27.3,26.4,00.0,36.1,29.1,11.2,0000.0,0015.31,0007.28,0005.97
2022-05-01 17:45:00,,0823.2,4.99,0.00,27.3,26.4,00.0,36.2,29.2,11.2,0000.0,0015.46,0007.18,0005.92
2022-05-01 17:46:00,,0823.2,5.00,0.00,27.4,26.4,00.0,36.2,29.2,11.0,0000.0,0015.17,0007.12,0005.85
2022-05-01 17:47:00,,0823.2,5.01,0.00,27.4,26.4,00.0,36.2,29.2,11.0,0000.0,0014.79,0007.03,0005.75
2022-05-01 17:48:00,,0823.2,4.99,0.00,27.4,26.5,00.0,36.2,29.2,11.2,0000.0,0014.72,0006.96,0005.66
2022-05-01 17:49:00,,0823.2,4.99,0.00,27.4,26.5,00.0,36.2,29.2,11.4,0000.0,0014.80,0006.98,0005.62
2022-05-01 17:50:00,,0823.1,5.00,0.00,27.4,26.5,00.0,36.2,29.2,11.5,0000.0,0014.93,0006.99,0005.60
2022-05-01 17:51:00,,0823.1,5.02,0.00,27.4,26.5,00.0,36.2,29.2,11.5,0000.0,0015.79,0006.98,0005.58
2022-05-01 17:52:00,,0823.2,5.00,0.00,27.4,26.5,00.0,36.2,29.2,11.2,0000.3,0016.07,0007.00,0005.58
2022-05-01 17:53:00,,0823.2,4.98,0.00,27.4,26.5,00.0,36.2,29.2,10.9,0000.2,0016.39,0006.98,0005.58
2022-05-01 17:54:00,,0823.2,5.01,0.00,27.4,26.5,00.0,36.3,29.3,11.3,0001.1,0015.29,0007.00,0005.60
2022-05-01 17:55:00,,0823.2,5.01,0.00,27.5,26.5,00.0,36.3,29.3,11.3,0001.8,0015.95,0007.03,0005.66
2022-05-01 17:56:00,,0823.2,5.00,0.00,27.5,26.6,00.0,36.3,29.3,11.3,0001.8,0015.98,0007.12,0005.72
2022-05-01 17:57:00,,0823.2,4.99,0.00,27.5,26.6,00.0,36.3,29.3,11.1,0002.1,0016.01,0007.19,0005.75
2022-05-01 17:58:00,,0823.1,4.99,0.00,27.5,26.6,00.0,36.3,29.3,11.1,0001.4,0017.19,0007.27,0005.81
2022-05-01 17:59:00,,0823.1,5.00,0.00,27.5,26.6,00.0,36.3,29.3,11.2,0003.2,0017.20,0007.33,0005.87
